Weather History for KBBW - October, 2011

Change the Weather History Date:

Friday, October 14, 2011

  Actual Average Record
Temperature  
Mean Temperature 46 °F 50 °F  
Max Temperature 60 °F 64 °F 88 °F (1989)
Min Temperature 31 °F 37 °F 19 °F (1986)
Degree Days  
Heating Degree Days 19 15  
Month to date heating degree days 105 178  
Cooling Degree Days 0 0  
Month to date cooling degree days 8 2  
Year to date cooling degree days 755 764  
Moisture  
Dew Point 30 °F    
Average Humidity 60    
Maximum Humidity 92    
Minimum Humidity 27    
Precipitation  
Precipitation 0.00 in 0.06 in 0.73 in (2013)
Sea Level Pressure  
Sea Level Pressure 30.04 in    
Wind  
Wind Speed 7 mph (NNW)    
Max Wind Speed 21 mph    
Max Gust Speed 29 mph    
Visibility 10 miles    
Events      
T = Trace of Precipitation, MM = Missing Value Source: NWS Daily Summary

Daily Weather History Graph

Daily Weather History Graph

Search for Another Location

Airport or City:

Trip Planner

Search our weather history database for the weather conditions in past years. The results will help you decide how hot, cold, wet, or windy it might be!

Date:

Astronomy

Oct. 14, 2011 Rise Set
Actual Time 7:49 AM CDT 6:59 PM CDT
Civil Twilight 7:21 AM CDT 7:27 PM CDT
Nautical Twilight 6:49 AM CDT 7:59 PM CDT
Astronomical Twilight 6:17 AM CDT 8:31 PM CDT
Moon 8:11 PM CDT (10/14) 10:21 AM CDT (10/14)
Length of Visible Light 12h 06m
Length of Day
11h 10m
Waning Gibbous, 94% of the Moon is Illuminated
Oct 14
Waning Gibbous
Oct 19
Last Quarter
Oct 26
New
Nov 2
First Quarter
Nov 10
Full

Hourly Weather History & Observations

Time (CDT) Temp. Windchill Dew Point Humidity Pressure Visibility Wind Dir Wind Speed Gust Speed Precip Events Conditions
12:53 AM 51.8 °F - 30.2 °F 44% 29.97 in 10.0 mi NNW 8.1 mph - N/A   Clear
1:53 AM 48.0 °F - 32.0 °F 54% 29.96 in 10.0 mi NW 5.8 mph - N/A   Clear
2:53 AM 50.0 °F - 28.9 °F 44% 29.96 in 10.0 mi NNW 9.2 mph - N/A   Clear
3:53 AM 46.9 °F - 30.0 °F 52% 29.97 in 10.0 mi NW 4.6 mph - N/A   Clear
4:53 AM 46.9 °F - 30.9 °F 54% 29.98 in 10.0 mi NNW 4.6 mph - N/A   Clear
5:53 AM 46.0 °F 44.8 °F 32.0 °F 58% 29.99 in 10.0 mi NNW 3.5 mph - N/A   Clear
6:53 AM 44.1 °F 42.5 °F 30.9 °F 60% 30.01 in 10.0 mi NNW 3.5 mph - N/A   Clear
7:53 AM 42.8 °F - 33.8 °F 70% 30.02 in 10.0 mi Calm Calm - N/A   Partly Cloudy
8:53 AM 48.0 °F - 32.0 °F 54% 30.05 in 10.0 mi North 8.1 mph - N/A   Mostly Cloudy
9:53 AM 50.0 °F - 33.1 °F 52% 30.07 in 10.0 mi NNW 6.9 mph - N/A   Clear
10:53 AM 53.1 °F - 33.1 °F 47% 30.07 in 10.0 mi NNW 10.4 mph - N/A   Clear
11:53 AM 57.0 °F - 28.9 °F 34% 30.07 in 10.0 mi North 16.1 mph 25.3 mph N/A   Clear
12:53 PM 57.0 °F - 28.0 °F 33% 30.07 in 10.0 mi NNW 16.1 mph 25.3 mph N/A   Clear
1:53 PM 59.0 °F - 28.4 °F 31% 30.07 in 10.0 mi North 17.3 mph 25.3 mph N/A   Partly Cloudy
2:53 PM 60.1 °F - 27.0 °F 28% 30.05 in 10.0 mi North 19.6 mph 24.2 mph N/A   Mostly Cloudy
3:53 PM 59.0 °F - 27.0 °F 29% 30.05 in 10.0 mi NNW 12.7 mph - N/A   Mostly Cloudy
4:53 PM 57.0 °F - 26.1 °F 30% 30.06 in 10.0 mi NNW 10.4 mph 19.6 mph N/A   Mostly Cloudy
5:53 PM 57.0 °F - 26.1 °F 30% 30.06 in 10.0 mi North 11.5 mph - N/A   Clear
6:53 PM 52.0 °F - 27.0 °F 38% 30.08 in 10.0 mi Calm Calm - N/A   Clear
7:53 PM 44.1 °F - 30.9 °F 60% 30.10 in 10.0 mi Calm Calm - N/A   Clear
8:53 PM 37.0 °F - 32.0 °F 82% 30.11 in 10.0 mi Calm Calm - N/A   Clear
9:53 PM 35.1 °F 32.2 °F 30.9 °F 85% 30.11 in 10.0 mi NNW 3.5 mph - N/A   Clear
10:53 PM 33.1 °F - 30.0 °F 89% 30.11 in 10.0 mi Calm Calm - N/A   Clear
11:53 PM 32.0 °F 28.7 °F 30.2 °F 93% 30.08 in 10.0 mi NNW 3.5 mph - N/A   Clear